sat.trackr.live / text

‹ back to catalog

STARLINK-35933

NORAD 66529 · 2025-265P

PAYLOAD ACTIVE UNKNOWN

§ Identity

Operator
Country
US
Launch date
2025-11-19
Launch site
AFETR
Launch vehicle
Mass (kg)
RCS (m²)

Purposes: comms

External: N2YO · Heavens-Above · Gunter

§ Orbital elements

Epoch: 2026-09-20T16:45:39.674304Z

Period
94.27 min
Inclination
43.0041°
Eccentricity
0.0001839
Mean motion
15.27569055 rev/d
Perigee alt
481.8 km
Apogee alt
484.3 km
Semi-major
6,861.2 km
B*
4.5006e-4
RAAN
256.9655°
Arg perigee
267.8997°
Mean anomaly
92.1644°
Rev number
4,693

§ Raw data

STARLINK-359331 66529U 25265P   26263.69837586  .00012139  00000+0  45006-3 0  99922 66529  43.0041 256.9655 0001839 267.8997  92.1644 15.27569055 46932

JSON: /api/v1/satellites/66529 · /tle

For live sub-satellite position, see the globe view (requires WebGL).

§ Visibility from observer

Set your observer location to see the next 7 days of passes ≥ 10°. The values pass through the URL so the page stays shareable.

No JS? Fill the form by hand. The geolocation button needs JavaScript.